Weather Roundup
Issued by NWS

Home | Current Version | Previous Version | Text Only | Print | Product List | Glossary On
Versions: 1 2 3 4 5 6 7 8 9 10 11 12 13 14 15 16 17 18 19 20 21 22 23 24 25 26 27 28 29 30 31 32 33 34 35 36 37 38 39 40 41 42 43 44 45 46 47 48 49 50
000
NZUS93 KARX 222210
HRRWXR

CURRENT HOURLY OBSERVATIONS ACROSS
MUCH OF THE UPPER MISSISSIPPI VALLEY
NATIONAL WEATHER SERVICE LA CROSSE WI
500 PM CDT MON SEP 22 2014


...SOUTHEAST MINNESOTA...


CITY           SKY/WX    TMP DP  RH WIND       PRES   REMARKS
ROCHESTER      SUNNY     70  49  47 CALM      30.21F
ROCHESTER/MAYO FAIR      70  45  40 W6        30.20F
WINONA         SUNNY     70  50  49 NW3       30.20F
AUSTIN         SUNNY     70  46  43 W7        30.20F
ALBERT LEA     SUNNY     72  46  40 CALM      30.20F
DODGE CENTER   SUNNY     70  50  49 SW5       30.20F
PRESTON        SUNNY     68  53  58 W5        30.21F
OWATONNA       SUNNY     72  46  40 W6        30.19F
FARIBAULT      SUNNY     73  43  33 CALM      30.19F
$$

...ELSEWHERE IN MINNESOTA...


CITY           SKY/WX    TMP DP  RH WIND       PRES   REMARKS
MINNEAPOLIS    SUNNY     72  49  44 W8        30.17F
INTNL FALLS    SUNNY     73  48  41 VRB6      30.05F
DULUTH         MOSUNNY   71  49  45 W13G20    30.11S
RED WING       SUNNY     73  48  40 SW7       30.17F
REDWOOD FALLS  SUNNY     74  46  36 S12       30.15F
MANKATO        SUNNY     72  46  40 SW6       30.18F
WORTHINGTON    MOSUNNY   72  45  37 S8        30.19F
FAIRMONT       SUNNY     73  45  35 SW9       30.19F
$$

...SOUTHWEST WISCONSIN...


CITY           SKY/WX    TMP DP  RH WIND       PRES   REMARKS
LA CROSSE      SUNNY     72  51  47 NW5       30.19F
PRAIRIE DU CHI SUNNY     71  44  38 SW3       30.20F
BOSCOBEL       SUNNY     72  49  44 W9        30.21F
LONE ROCK      SUNNY     72  49  44 W6        30.20F
PLATTEVILLE    SUNNY     69  47  46 W7        30.23F
FORT MC COY    SUNNY     69  48  46 W9        30.20F
CAMP DOUGLAS   MOSUNNY   68  52  56 W9        30.19F
VIROQUA        FAIR      69  49  49 W6        30.21F
WIS DELLS      SUNNY     68  46  45 W8        30.20F
$$

...ELSEWHERE IN WISCONSIN...


CITY           SKY/WX    TMP DP  RH WIND       PRES   REMARKS
MILWAUKEE      MOSUNNY   68  43  40 W8        30.20F
MADISON        MOSUNNY   69  47  45 W7        30.21F
GREEN BAY      SUNNY     67  48  50 W7        30.16F
EAU CLAIRE     SUNNY     69  49  48 W8        30.18F
BLACK RVR FLS  FAIR      70  49  47 W7        30.19F
MEDFORD        SUNNY     64  49  57 W7        30.18F
WAUSAU         SUNNY     66  48  52 W10       30.16F
WIS RAPIDS     SUNNY     68  49  50 W9        30.19F
MARSHFIELD     SUNNY     67  51  56 W9        30.18S
RICE LAKE      SUNNY     68  49  50 SW9       30.19S
$$

...NORTHEAST IOWA...


CITY           SKY/WX    TMP DP  RH WIND       PRES   REMARKS
WATERLOO       SUNNY     71  48  43 SW7       30.21F
DUBUQUE        SUNNY     68  45  43 SW7       30.23F
DECORAH        SUNNY     70  48  46 VRB6      30.20F
MASON CITY     SUNNY     71  48  43 S5        30.22F
CHARLES CITY   SUNNY     72  46  40 SW6       30.22F
OELWEIN        SUNNY     70  46  43 VRB5      30.22F
$$

...ELSEWHERE IN IOWA...


CITY           SKY/WX    TMP DP  RH WIND       PRES   REMARKS
DES MOINES     MOSUNNY   73  49  42 W7        30.22F
IOWA CITY      SUNNY     70  49  47 S5        30.24F
FORT DODGE     MOSUNNY   72  48  43 S3        30.22S
MARSHALLTOWN   SUNNY     71  48  43 SW5       30.22F
CEDAR RAPIDS   SUNNY     69  47  45 S3        30.23F
$$

...NORTHERN ILLINOIS...


CITY           SKY/WX    TMP DP  RH WIND       PRES   REMARKS
CHICAGO-OHARE  SUNNY     67  41  38 W5        30.23S
DUPAGE         SUNNY     69  43  38 VRB3      30.23F
CHICAGO-MIDWAY SUNNY     66  45  46 SE7       30.23F
MOLINE         SUNNY     69  45  41 S6        30.24F
ROCKFORD       SUNNY     69  44  40 VRB6      30.24F
STERLING       SUNNY     70  45  40 NW3       30.23F
PEORIA         SUNNY     72  44  36 N3        30.24F
$$

NOTE: "FAIR" INDICATES FEW OR NO CLOUDS BELOW 12,000 FEET WITH NO
SIGNIFICANT WEATHER AND/OR OBSTRUCTIONS TO VISIBILITY. WIND
SPEEDS ARE IN MILES-PER-HOUR.



USA.gov is the U.S. government's official web portal to all federal, state and local government web resources and services.